Date String (YYYY-MM-DD hh:mm:ss) UTC,Instrument flags,Ambient pressure (hPa),Sample flow (lpm),Bypass flow (lpm),Sample temperature (°C),Ambient temperature (°C),ASC tube jacket temperature (°C),LED temperature (°C),Box temperature (°C),Sample RH (%),Span deviation,Mass concentration (μg/m³),Mass concentration (μg/m³),Mass concentration (μg/m³)
DateTimeUTC,F1_M11,P_M11,Q1_M11,Q2_M11,T1_M11,T2_M11,T3_M11,T4_M11,T5_M11,U1_M11,ZSPAN_M11,X0_M11,X2_M11,X1_M11
2022-10-12 20:00:00,,0828.2,5.00,0.00,30.7,29.6,00.0,39.4,32.6,13.5,0000.9,0027.99,0008.43,0006.25
2022-10-12 20:01:00,,0828.3,5.00,0.00,30.7,29.6,00.0,39.5,32.6,13.7,0000.9,0028.51,0008.56,0006.32
2022-10-12 20:02:00,,0828.3,5.00,0.00,30.8,29.6,00.0,39.5,32.7,13.6,0000.5,0029.89,0008.61,0006.34
2022-10-12 20:03:00,,0828.2,5.00,0.00,30.8,29.5,00.0,39.5,32.7,13.3,0000.3,0029.72,0008.65,0006.37
2022-10-12 20:04:00,,0828.3,5.00,0.00,30.8,29.5,00.0,39.5,32.7,13.2,0000.1,0030.40,0008.69,0006.41
2022-10-12 20:05:00,,0828.3,5.01,0.00,30.8,29.5,00.0,39.5,32.7,13.2,0000.5,0030.83,0008.71,0006.46
2022-10-12 20:06:00,,0828.3,5.00,0.00,30.8,29.6,00.0,39.5,32.7,13.4,0001.1,0030.88,0008.73,0006.49
2022-10-12 20:07:00,,0828.3,5.00,0.00,30.8,29.6,00.0,39.6,32.7,13.4,0001.1,0032.29,0008.77,0006.53
2022-10-12 20:08:00,,0828.4,4.99,0.00,30.8,29.5,00.0,39.6,32.7,13.3,0000.9,0033.32,0008.82,0006.56
2022-10-12 20:09:00,,0828.4,5.02,0.00,30.8,29.6,00.0,39.6,32.7,13.1,0001.0,0032.71,0008.85,0006.58
2022-10-12 20:10:00,,0828.6,4.99,0.00,30.8,29.6,00.0,39.6,32.7,13.0,0001.3,0030.37,0008.78,0006.58
2022-10-12 20:11:00,,0829.1,4.99,0.00,30.8,29.6,00.0,39.6,32.7,13.0,0001.6,0029.53,0008.63,0006.54
2022-10-12 20:12:00,,0828.9,4.99,0.00,30.9,29.6,00.0,39.6,32.8,13.0,0001.6,0030.02,0008.58,0006.51
2022-10-12 20:13:00,,0828.7,5.01,0.00,30.9,29.6,00.0,39.6,32.8,12.9,0001.7,0028.67,0008.56,0006.51
2022-10-12 20:14:00,,0828.8,4.99,0.00,30.9,29.6,00.0,39.6,32.8,12.9,0001.9,0029.45,0008.51,0006.52
2022-10-12 20:15:00,,0828.9,5.01,0.00,30.9,29.6,00.0,39.7,32.8,13.0,0002.1,0030.90,0008.49,0006.52
2022-10-12 20:16:00,,0828.9,4.99,0.00,30.9,29.6,00.0,39.7,32.8,13.0,0002.1,0030.98,0008.52,0006.53
2022-10-12 20:17:00,,0829.1,5.00,0.00,30.9,29.6,00.0,39.7,32.8,13.0,0002.2,0031.07,0008.48,0006.53
2022-10-12 20:18:00,,0828.9,5.00,0.00,30.9,29.6,00.0,39.7,32.8,12.8,0002.0,0030.62,0008.50,0006.55
2022-10-12 20:19:00,,0829.0,4.98,0.00,30.9,29.6,00.0,39.7,32.8,12.9,0002.6,0030.40,0008.54,0006.57
2022-10-12 20:20:00,,0829.0,5.02,0.00,30.9,29.6,00.0,39.7,32.8,13.1,0003.2,0030.68,0008.50,0006.56
2022-10-12 20:21:00,,0828.9,4.98,0.00,30.9,29.6,00.0,39.7,32.8,13.3,0003.6,0031.11,0008.45,0006.55
2022-10-12 20:22:00,,0828.8,5.01,0.00,30.9,29.6,00.0,39.7,32.8,13.1,0003.2,0029.97,0008.43,0006.53
2022-10-12 20:23:00,,0828.9,4.98,0.00,31.0,29.6,00.0,39.7,32.8,13.2,0002.9,0030.20,0008.37,0006.52
2022-10-12 20:24:00,,0829.1,5.01,0.00,31.0,29.6,00.0,39.7,32.8,13.1,0003.1,0029.62,0008.33,0006.51
2022-10-12 20:25:00,,0828.8,4.99,0.00,31.0,29.6,00.0,39.8,32.8,13.2,0002.7,0029.77,0008.36,0006.48
2022-10-12 20:26:00,,0828.8,5.01,0.00,31.0,29.6,00.0,39.8,32.8,13.4,0002.5,0027.19,0008.34,0006.46
2022-10-12 20:27:00,,0829.2,4.99,0.00,31.0,29.7,00.0,39.8,32.9,13.3,0002.4,0027.27,0008.31,0006.43
2022-10-12 20:28:00,,0829.1,4.99,0.00,31.0,29.7,00.0,39.8,32.9,13.1,0001.9,0027.80,0008.32,0006.43
2022-10-12 20:29:00,,0828.9,5.01,0.00,31.0,29.7,00.0,39.8,32.9,13.1,0002.5,0027.77,0008.33,0006.42
2022-10-12 20:30:00,,0828.9,4.98,0.00,31.0,29.7,00.0,39.8,32.9,13.1,0002.2,0026.65,0008.30,0006.40
2022-10-12 20:31:00,,0829.0,5.01,0.00,31.0,29.8,00.0,39.8,32.9,13.1,0001.9,0026.36,0008.32,0006.38
2022-10-12 20:32:00,,0828.9,4.99,0.00,31.0,29.8,00.0,39.8,32.9,13.2,0001.7,0026.55,0008.32,0006.35
2022-10-12 20:33:00,,0829.1,5.00,0.00,31.1,29.7,00.0,39.8,32.9,13.3,0001.9,0026.52,0008.29,0006.32
2022-10-12 20:34:00,,0829.1,5.01,0.00,31.1,29.7,00.0,39.9,32.9,13.2,0002.5,0025.82,0008.30,0006.29
2022-10-12 20:35:00,,0829.2,4.99,0.00,31.1,29.7,00.0,39.9,32.9,13.2,0002.6,0025.88,0008.31,0006.26
2022-10-12 20:36:00,,0829.3,5.01,0.00,31.1,29.7,00.0,39.9,32.9,13.2,0002.8,0024.92,0008.26,0006.23
2022-10-12 20:37:00,,0829.3,4.99,0.00,31.1,29.8,00.0,39.9,33.0,13.1,0002.7,0024.84,0008.27,0006.21
2022-10-12 20:38:00,,0829.2,5.02,0.00,31.1,29.8,00.0,39.9,33.0,13.2,0002.4,0024.05,0008.28,0006.19
2022-10-12 20:39:00,,0829.1,4.99,0.00,31.1,29.8,00.0,39.9,33.0,13.1,0001.9,0023.30,0008.31,0006.17
2022-10-12 20:40:00,,0829.1,5.00,0.00,31.1,29.8,00.0,39.9,33.0,13.2,0000.0,0023.00,0008.25,0006.14
2022-10-12 20:41:00,,0829.0,4.99,0.00,31.1,29.8,00.0,39.9,33.0,13.3,0000.0,0023.23,0008.23,0006.10
2022-10-12 20:42:00,,0829.0,5.01,0.00,31.2,29.8,00.0,39.9,33.0,13.2,0000.0,0024.26,0008.35,0006.07
2022-10-12 20:43:00,,0828.9,4.99,0.00,31.2,29.8,00.0,39.9,33.0,13.0,0000.0,0024.52,0008.36,0006.06
2022-10-12 20:44:00,,0828.8,5.02,0.00,31.2,29.8,00.0,39.9,33.0,13.0,0000.0,0024.55,0008.43,0006.08
2022-10-12 20:45:00,,0828.8,4.98,0.00,31.2,29.8,00.0,40.0,33.0,13.1,0000.0,0026.90,0008.45,0006.07
2022-10-12 20:46:00,,0828.8,5.01,0.00,31.2,29.8,00.0,40.0,33.0,13.1,0000.0,0028.17,0008.39,0006.05
2022-10-12 20:47:00,,0828.8,4.99,0.00,31.2,29.7,00.0,40.0,33.0,13.0,0000.0,0029.81,0008.31,0006.03
2022-10-12 20:48:00,,0828.8,5.00,0.00,31.2,29.8,00.0,40.0,33.0,13.0,0000.0,0029.92,0008.24,0006.02
2022-10-12 20:49:00,,0828.8,5.00,0.00,31.2,29.8,00.0,40.0,33.0,12.9,0000.0,0030.42,0008.17,0006.01
2022-10-12 20:50:00,,0828.8,4.99,0.00,31.2,29.8,00.0,40.0,33.0,13.0,0000.0,0030.51,0008.04,0005.98
2022-10-12 20:51:00,,0828.9,5.02,0.00,31.2,29.8,00.0,40.0,33.0,13.1,0000.1,0029.60,0007.97,0005.95
2022-10-12 20:52:00,,0828.9,4.99,0.00,31.2,29.8,00.0,40.0,33.0,13.0,0000.6,0029.50,0007.93,0005.94
2022-10-12 20:53:00,,0828.9,5.00,0.00,31.2,29.9,00.0,40.0,33.0,13.0,0000.9,0028.18,0007.72,0005.93
2022-10-12 20:54:00,,0829.0,5.01,0.00,31.2,29.9,00.0,40.0,33.1,13.0,0000.5,0027.86,0007.63,0005.92
2022-10-12 20:55:00,,0829.0,4.99,0.00,31.2,30.0,00.0,40.0,33.1,12.9,0000.9,0028.30,0007.52,0005.88
2022-10-12 20:56:00,,0829.0,5.00,0.00,31.3,30.0,00.0,40.1,33.1,12.9,0001.3,0025.45,0007.44,0005.87
2022-10-12 20:57:00,,0829.1,4.99,0.00,31.3,30.0,00.0,40.1,33.1,12.9,0001.5,0023.71,0007.45,0005.88
2022-10-12 20:58:00,,0829.1,5.01,0.00,31.3,30.0,00.0,40.1,33.1,12.8,0001.5,0021.95,0007.46,0005.87
2022-10-12 20:59:00,,0829.1,4.99,0.00,31.3,30.1,00.0,40.1,33.1,12.9,0001.1,0021.65,0007.42,0005.87
